Temp
24 22 21 20 19 18 18 16 17 18 18 19 20 22 23 24 25 29 29 30 30 30 31 28 29 31 30 31 33 34 33 34 32 34 36 36 37 36 36 37 37 36 37
22 22 21 20 18 16 15 15 16 16 18 19 20 21 22 23 24 27 26 29 27 28 29 27 26 30 29 31 33 33 32 33 33 32 33 32 33 34 34 34 35 35 34
21 20 18 16 15 13 11 13 14 14 15 17 19 19 20 22 24 28 26 25 25 27 27 26 25 27 27 29 33 32 32 34 33 32 32 32 32 32 32 32 32 32 34
20 17 15 14 13 11 9 7 8 11 13 13 15 16 18 21 27 27 26 25 24 24 25 26 25 26 26 29 32 32 32 31 32 32 32 31 30 32 32 31 30 32 31
17 13 9 11 8 4 -0 0 3 7 9 8 12 14 16 23 29 28 26 25 26 23 24 25 26 27 30 32 33 32 31 31 30 30 32 31 29 30 30 32 30 29 30
12 4 2 2 2 -1 -5 -3 0 4 4 6 9 12 15 22 31 31 28 24 25 23 22 23 24 27 27 32 35 35 34 31 29 29 29 29 28 31 32 29 29 28 23
8 1 -2 -4 -1 -5 -4 -0 3 1 3 4 7 11 12 16 30 30 28 24 23 22 22 22 23 27 26 31 34 35 33 34 34 30 28 29 29 30 32 28 29 28 26
4 1 -2 -2 2 -2 -1 0 -0 2 2 7 7 9 12 15 28 31 26 23 22 22 21 21 21 23 26 32 31 31 32 31 31 32 31 30 31 32 32 31 28 27 29
4 2 1 3 4 1 2 -1 1 5 8 7 10 9 11 12 25 29 25 21 21 19 19 20 20 23 30 34 31 30 30 30 33 33 33 33 33 33 32 31 28 27 26
5 5 3 4 5 4 3 0 2 5 11 14 14 11 11 13 22 28 26 21 19 17 17 17 22 26 31 33 29 29 28 27 29 28 29 30 29 28 30 27 27 28 27
8 6 5 6 7 7 7 7 7 7 9 5 11 12 11 13 15 27 27 20 18 15 14 15 19 29 30 32 32 29 29 30 29 27 27 28 28 26 26 26 26 27 27
9 8 7 7 12 12 10 11 11 11 10 8 9 11 14 14 22 24 25 24 23 14 14 16 22 27 27 28 28 30 29 27 28 27 27 26 26 26 26 26 25 25 25
10 8 8 9 13 13 12 11 11 12 10 11 12 9 12 15 17 23 23 22 21 14 16 19 22 22 23 21 25 25 22 22 23 24 25 26 26 27 27 26 27 26 26
9 8 9 10 10 11 14 13 11 8 7 11 10 9 9 13 17 19 18 16 17 14 11 10 17 17 19 18 16 17 18 19 21 21 25 27 28 27 27 27 25 26 26
10 10 11 11 11 11 11 11 12 12 12 6 5 7 4 7 20 22 21 16 15 14 1 5 6 7 7 8 9 11 13 15 17 20 22 24 26 26 26 27 26 26 24
10 10 11 10 10 10 9 7 20 21 23 23 23 16 14 24 24 23 22 20 17 14 -3 -1 1 1 3 4 5 6 10 11 14 18 19 21 21 25 25 26 26 23 22
12 11 11 10 10 8 8 8 7 10 22 21 22 22 23 23 23 21 19 17 16 6 -3 -5 -4 -3 -2 1 3 5 5 9 13 15 16 18 19 22 24 25 25 23 21
13 12 11 11 10 9 8 7 5 3 -2 -1 10 16 21 21 21 19 16 7 -6 -3 -12 -13 -12 -7 -6 -4 -2 1 4 7 10 11 14 15 16 18 23 23 23 22 20
12 12 11 11 9 8 6 4 1 -1 -6 -9 -11 4 2 17 17 15 10 -10 -14 -13 -14 -11 -12 -8 -9 -8 -5 -2 0 4 7 8 10 12 14 16 19 22 22 22 21
13 12 11 9 6 5 4 2 -2 -5 -10 -13 -13 -9 -12 -7 -11 -14 -13 -16 -16 -16 -16 -15 -15 -14 -12 -14 -10 -7 -2 2 4 5 7 9 12 15 16 19 22 21 20
12 10 10 8 7 6 4 1 -0 -4 -7 -14 -13 -11 5 -10 -14 -16 -17 -17 -16 -16 -16 -17 -17 -18 -15 -15 -14 -9 -6 -2 2 3 4 6 9 12 14 19 21 21 21
11 10 9 8 6 4 3 -0 -3 -4 -9 -10 -15 -16 13 -12 -15 -16 -18 -18 -19 -21 -20 -19 -19 -19 -19 -16 -15 -13 -9 -4 0 0 1 4 7 11 13 16 19 21 21
11 9 9 6 6 2 -1 -4 -6 -9 -12 -14 -18 -16 -19 -18 -19 -19 -18 -20 -21 -20 -22 -23 -20 -18 -20 -20 -17 -15 -13 -6 -3 -5 -1 1 5 8 11 13 16 19 20
11 10 7 5 4 2 -0 -4 -8 -9 -11 -12 -17 -19 -19 -21 -20 -19 -21 -22 -22 -23 -24 -23 -22 -19 -19 -19 -20 -18 -16 -10 -6 -2 -3 -1 2 5 9 10 14 17 18
11 9 7 5 4 3 -1 -3 -6 -10 -11 -11 -14 -19 -21 -23 -23 -23 -24 -24 -23 -22 -20 -21 -22 -20 -19 -18 -16 -11 -7 0 4 3 -2 -3 2 4 5 6 10 14 14
10 9 8 6 5 2 2 -1 -4 -7 -9 -11 -13 -16 -15 -16 -18 -21 -23 -24 -22 -22 -21 -21 -21 -20 -19 -19 -17 -6 -1 8 9 3 -3 -1 -0 1 2 4 8 10 16
MSLP
1028.99 1029.40 1029.80 1030.05 1030.17 1030.14 1030.35 1030.54 1030.25 1029.80 1029.28 1028.70 1028.22 1027.63 1027.15 1026.48 1025.92 1024.85 1024.52 1023.94 1023.41 1022.91 1022.26 1021.63 1020.84 1019.90 1019.06 1018.06 1016.94 1016.10 1015.31 1014.70 1013.97 1013.29 1013.15 1013.19 1013.14 1013.14 1013.38 1013.50 1013.46 1013.86 1013.86
1028.98 1029.65 1029.93 1029.99 1030.13 1030.28 1030.73 1030.84 1030.33 1029.85 1029.47 1028.90 1028.58 1028.03 1027.39 1026.63 1026.01 1025.42 1024.87 1024.37 1024.05 1023.26 1022.67 1022.03 1021.43 1020.36 1019.46 1018.61 1017.33 1016.39 1015.65 1015.04 1014.50 1014.01 1013.68 1013.78 1013.46 1013.73 1013.74 1014.03 1014.23 1014.39 1014.66
1028.92 1029.74 1030.24 1030.18 1030.36 1030.72 1031.22 1031.26 1030.47 1030.35 1030.13 1029.51 1028.95 1028.31 1027.80 1027.04 1026.06 1025.55 1025.31 1024.90 1024.59 1023.98 1023.33 1022.58 1021.99 1021.08 1019.98 1018.95 1017.65 1016.77 1016.12 1015.17 1014.70 1014.35 1013.98 1013.93 1014.01 1014.05 1014.42 1014.74 1014.95 1015.25 1015.41
1029.05 1029.95 1030.55 1030.72 1030.80 1031.12 1031.63 1031.90 1031.20 1030.86 1030.51 1030.16 1029.67 1029.09 1028.42 1027.54 1026.16 1025.54 1025.38 1025.16 1024.88 1024.57 1023.90 1023.13 1022.33 1021.57 1020.78 1019.43 1018.00 1017.27 1016.58 1015.70 1015.03 1014.40 1014.40 1014.49 1014.52 1014.47 1014.65 1015.02 1015.47 1015.73 1016.03
1029.02 1029.93 1030.76 1031.13 1031.46 1031.66 1032.14 1032.53 1031.92 1031.27 1030.88 1030.53 1029.91 1029.43 1028.54 1027.60 1026.39 1025.70 1025.49 1025.33 1024.96 1024.79 1024.27 1023.52 1022.68 1021.73 1020.85 1019.73 1018.48 1017.61 1017.04 1016.39 1015.86 1015.35 1015.01 1014.98 1015.04 1014.91 1015.09 1015.37 1015.71 1016.10 1016.64
1029.07 1030.19 1031.00 1031.65 1031.68 1031.97 1032.35 1032.73 1032.49 1031.83 1031.35 1030.83 1030.35 1029.77 1029.04 1028.02 1026.55 1026.03 1025.87 1025.68 1025.41 1025.14 1024.57 1023.89 1023.12 1021.99 1020.89 1019.86 1018.84 1018.21 1017.81 1017.15 1016.61 1016.12 1016.10 1015.81 1015.59 1015.46 1015.50 1015.48 1015.93 1016.22 1017.04
1029.02 1030.34 1031.09 1031.62 1032.00 1032.39 1032.47 1032.63 1032.44 1032.19 1031.88 1031.29 1030.76 1030.05 1029.49 1028.66 1026.82 1026.32 1026.24 1026.13 1025.77 1025.56 1025.08 1024.50 1023.53 1022.49 1021.45 1020.20 1019.17 1018.52 1018.06 1017.77 1017.50 1017.31 1016.89 1016.25 1015.95 1015.72 1015.41 1015.90 1016.03 1016.41 1017.09
1028.81 1030.12 1031.09 1031.57 1032.02 1032.34 1032.42 1032.55 1032.37 1032.18 1031.94 1031.56 1031.13 1030.54 1029.82 1029.17 1027.48 1026.30 1026.62 1026.48 1026.09 1025.93 1025.61 1025.10 1024.34 1023.02 1021.72 1020.36 1019.58 1018.82 1018.37 1018.22 1018.01 1017.58 1017.20 1016.74 1016.42 1016.24 1016.00 1016.14 1016.34 1016.72 1017.25
1028.34 1029.47 1030.61 1031.21 1031.59 1032.09 1032.30 1032.56 1032.34 1032.22 1032.01 1031.81 1031.46 1030.86 1030.27 1029.50 1028.15 1026.79 1026.86 1026.67 1026.40 1026.16 1025.94 1025.56 1024.93 1023.54 1022.02 1020.89 1020.06 1019.24 1018.79 1018.58 1018.18 1017.90 1017.50 1017.49 1017.23 1016.61 1016.37 1016.30 1016.69 1017.03 1017.11
1027.53 1028.68 1030.05 1030.77 1031.17 1031.69 1031.87 1032.07 1032.18 1032.25 1032.24 1031.75 1031.50 1031.07 1030.74 1030.01 1028.74 1027.29 1026.72 1026.90 1026.63 1026.53 1026.31 1025.94 1025.03 1023.79 1022.32 1021.45 1020.86 1020.18 1019.57 1019.40 1018.87 1018.52 1018.28 1017.89 1017.67 1017.40 1017.00 1017.09 1016.96 1017.11 1017.39
1026.86 1028.28 1029.63 1030.32 1030.84 1031.14 1031.55 1031.78 1032.04 1032.14 1032.12 1031.79 1031.69 1031.10 1030.60 1030.13 1029.46 1027.88 1027.17 1027.24 1026.96 1027.02 1026.77 1026.23 1025.46 1023.93 1023.10 1022.17 1021.69 1021.20 1020.65 1020.14 1019.67 1019.42 1019.22 1018.97 1018.68 1018.61 1018.35 1018.00 1017.80 1017.74 1017.98
1026.34 1027.88 1029.10 1029.86 1030.41 1030.90 1031.21 1031.64 1032.01 1032.10 1032.22 1032.16 1032.03 1031.38 1030.64 1030.21 1029.22 1028.58 1027.88 1027.69 1027.20 1027.51 1027.22 1026.68 1025.71 1024.77 1024.11 1023.33 1022.61 1022.06 1021.44 1020.85 1020.34 1020.00 1019.59 1019.25 1019.17 1019.11 1018.91 1018.68 1018.61 1018.59 1018.47
1025.90 1027.63 1028.74 1029.53 1029.92 1030.49 1030.88 1031.26 1031.82 1031.94 1032.13 1032.16 1032.25 1031.64 1030.87 1030.19 1029.96 1029.22 1028.66 1028.32 1028.06 1028.05 1027.73 1027.16 1026.35 1025.83 1025.22 1024.65 1023.87 1023.26 1022.71 1022.23 1021.61 1020.78 1020.25 1020.04 1019.87 1019.59 1019.39 1019.11 1019.04 1019.07 1018.92
1025.46 1027.33 1028.46 1029.16 1029.75 1030.10 1030.54 1030.97 1031.29 1031.83 1032.02 1032.18 1032.11 1032.08 1031.29 1030.35 1029.94 1029.48 1029.30 1029.18 1028.90 1028.66 1028.59 1028.27 1027.40 1027.02 1026.38 1025.91 1025.10 1024.61 1024.16 1023.66 1022.93 1022.21 1021.44 1020.95 1020.57 1020.09 1019.79 1019.57 1019.46 1019.46 1019.19
1025.06 1026.77 1027.86 1028.70 1029.44 1029.92 1030.24 1030.58 1030.87 1031.33 1031.56 1031.67 1032.01 1031.91 1031.54 1030.47 1030.02 1029.96 1029.56 1029.57 1029.28 1029.34 1029.75 1029.16 1028.73 1028.56 1028.18 1027.59 1026.88 1026.13 1025.40 1024.59 1023.82 1023.31 1022.67 1021.94 1021.41 1021.04 1020.50 1020.20 1020.02 1019.98 1020.01
1024.40 1026.02 1027.22 1028.07 1029.00 1029.66 1030.10 1030.48 1030.17 1030.36 1030.32 1030.45 1030.83 1031.42 1031.49 1030.63 1030.38 1030.61 1030.34 1030.29 1030.02 1029.87 1030.73 1031.03 1031.06 1030.87 1030.54 1029.91 1029.08 1028.10 1027.06 1026.36 1025.60 1024.75 1024.05 1023.29 1022.52 1021.73 1021.35 1021.09 1021.00 1021.11 1021.29
1023.48 1025.06 1026.36 1027.43 1028.43 1029.16 1029.88 1030.15 1030.22 1030.33 1030.44 1030.71 1031.12 1031.13 1031.09 1031.11 1031.13 1031.23 1031.35 1031.28 1031.04 1031.23 1031.92 1032.50 1032.56 1032.41 1032.09 1031.45 1030.67 1029.95 1029.08 1028.09 1027.06 1026.09 1025.37 1024.50 1023.60 1022.88 1022.46 1022.17 1021.94 1021.92 1022.03
1023.32 1024.49 1025.41 1026.66 1027.82 1028.66 1029.36 1030.12 1030.66 1031.29 1032.02 1032.55 1032.42 1031.88 1031.34 1031.40 1031.53 1031.77 1032.16 1032.67 1032.90 1032.77 1033.29 1033.76 1033.70 1033.42 1033.21 1032.65 1031.98 1031.23 1030.24 1029.19 1028.13 1027.22 1026.30 1025.58 1024.89 1024.32 1023.49 1022.99 1022.94 1022.88 1022.68
1022.71 1024.09 1025.01 1026.04 1027.39 1028.43 1029.34 1030.18 1031.01 1031.67 1032.49 1033.25 1033.60 1033.02 1033.51 1031.95 1032.33 1032.47 1033.18 1033.97 1034.59 1034.81 1034.44 1034.27 1034.12 1033.98 1033.81 1033.44 1032.86 1032.08 1031.25 1030.37 1029.54 1028.47 1027.43 1026.76 1026.14 1025.39 1024.55 1024.00 1023.72 1023.50 1023.36
1022.43 1023.63 1024.88 1025.78 1027.23 1028.40 1029.46 1030.41 1031.46 1032.10 1032.83 1033.66 1034.30 1034.46 1034.52 1034.29 1034.46 1034.67 1034.81 1035.07 1035.24 1035.37 1035.06 1034.86 1034.60 1034.49 1034.36 1034.12 1033.55 1032.83 1031.93 1031.10 1030.36 1029.65 1028.99 1028.16 1027.20 1026.27 1025.64 1024.94 1024.46 1024.25 1024.24
1021.87 1023.46 1024.59 1025.77 1027.01 1027.99 1029.09 1030.07 1030.94 1031.99 1032.97 1033.89 1034.38 1034.15 1034.36 1034.61 1035.44 1035.44 1035.68 1035.85 1035.77 1035.82 1035.54 1035.44 1035.26 1034.98 1034.55 1034.40 1034.08 1033.43 1032.80 1032.10 1031.49 1030.90 1030.14 1029.22 1028.19 1027.21 1026.53 1025.79 1025.13 1024.85 1024.65
1021.32 1022.85 1024.33 1025.53 1026.66 1027.67 1028.83 1029.84 1030.89 1031.92 1032.91 1033.68 1034.02 1034.00 1034.09 1034.54 1034.92 1035.30 1035.64 1035.92 1035.90 1035.87 1035.87 1035.70 1035.31 1034.92 1034.70 1034.52 1034.42 1034.09 1033.49 1032.95 1032.25 1031.69 1031.18 1030.42 1029.51 1028.46 1027.53 1026.81 1026.09 1025.53 1025.31
1021.11 1022.51 1023.95 1025.34 1026.42 1027.63 1028.88 1029.88 1030.72 1031.73 1032.62 1033.29 1033.85 1034.30 1034.44 1034.76 1035.04 1035.29 1035.72 1035.62 1035.42 1035.20 1035.43 1035.65 1035.33 1034.74 1034.48 1034.29 1034.11 1034.19 1034.00 1033.30 1032.90 1032.78 1032.11 1031.23 1030.38 1029.47 1028.65 1028.11 1027.29 1026.55 1026.24
1020.76 1022.10 1023.53 1025.04 1026.21 1027.29 1028.20 1029.37 1030.40 1031.18 1032.16 1032.85 1033.58 1033.97 1034.39 1034.86 1035.37 1035.65 1035.56 1035.52 1035.59 1035.06 1035.01 1035.17 1035.16 1034.79 1034.47 1034.16 1033.88 1033.66 1033.57 1033.06 1032.72 1032.49 1032.29 1031.92 1031.16 1030.19 1029.44 1029.05 1028.19 1027.39 1027.08
1020.16 1021.58 1023.08 1024.30 1025.35 1026.43 1027.55 1028.65 1029.65 1030.58 1031.40 1032.29 1033.14 1033.60 1033.88 1034.32 1034.79 1035.48 1035.23 1035.29 1035.18 1035.20 1034.70 1034.61 1034.74 1034.67 1034.35 1034.14 1033.89 1033.45 1033.03 1032.50 1031.97 1031.89 1032.02 1031.88 1031.50 1031.03 1030.28 1029.84 1029.11 1028.20 1027.76
1019.57 1021.00 1022.46 1023.66 1024.71 1025.61 1026.59 1027.57 1028.79 1029.83 1030.78 1031.47 1032.35 1032.99 1033.35 1033.70 1034.20 1034.23 1034.76 1034.90 1034.92 1034.76 1034.64 1034.44 1034.24 1034.26 1034.19 1033.87 1033.64 1033.30 1033.08 1032.54 1031.91 1031.86 1032.00 1032.02 1031.88 1031.57 1031.05 1030.67 1029.99 1029.15 1028.67
Wind_Speed
6 5 5 4 3 3 4 4 6 7 8 8 9 9 9 10 11 11 10 11 13 12 12 12 14 13 10 11 10 8 6 5 4 2 3 5 2 4 5 5 6 6 6
6 6 5 5 4 4 4 5 5 6 7 8 8 8 8 8 9 10 11 11 12 12 12 13 13 11 13 13 10 11 8 7 3 4 2 2 4 3 5 5 4 5 5
7 6 4 5 4 4 4 4 5 6 7 8 8 8 9 9 9 8 10 9 10 11 12 11 12 13 14 13 12 11 9 7 4 2 2 2 2 2 4 4 4 5 4
8 6 5 4 4 4 3 4 4 5 6 7 7 7 8 9 9 8 10 10 8 10 11 11 11 12 13 15 12 11 11 9 7 4 2 2 2 2 3 2 3 3 3
9 7 4 4 4 4 4 4 4 4 4 5 5 7 7 8 9 11 10 11 10 11 11 11 11 15 21 21 11 11 11 9 7 6 4 2 2 1 1 2 3 3 3
8 7 4 3 4 4 3 3 3 5 4 5 6 6 7 7 20 18 15 9 11 11 12 12 12 13 19 24 23 20 14 10 8 6 5 4 5 3 1 2 4 2 3
10 7 6 4 5 3 2 3 4 4 4 5 6 5 6 8 20 18 19 9 9 9 11 12 12 10 14 14 17 16 12 16 14 6 6 6 4 6 3 2 2 3 2
10 9 6 5 6 3 4 3 2 2 3 3 5 6 4 6 19 20 18 9 8 9 10 11 13 14 15 16 12 10 9 9 9 6 7 7 7 5 4 1 2 4 4
12 11 8 7 7 5 6 3 1 3 3 3 3 5 6 7 18 22 13 8 8 9 9 9 12 13 21 23 13 11 9 9 11 17 17 17 16 17 12 2 4 3 3
13 12 9 7 8 6 6 4 1 1 2 3 4 4 5 7 16 22 16 6 8 7 8 9 16 18 20 21 11 10 9 9 9 9 8 10 12 12 16 7 3 1 2
12 11 9 7 7 6 5 3 3 3 3 4 4 4 4 4 9 22 21 8 6 6 6 7 8 20 19 20 19 11 12 8 9 6 5 5 5 6 6 6 7 4 2
14 13 11 8 7 6 7 4 3 3 3 3 4 4 4 4 12 19 20 18 15 6 7 7 8 19 18 19 15 21 20 13 6 6 6 6 6 5 5 6 7 6 5
16 13 11 9 8 7 8 6 4 4 2 2 2 3 4 5 4 18 20 19 17 8 6 11 16 16 18 14 21 21 14 9 7 8 8 6 6 4 2 2 4 3 6
16 14 11 10 9 6 5 5 5 3 2 2 2 3 3 4 3 7 7 8 12 9 11 7 11 14 16 13 10 12 9 8 7 8 7 6 5 5 5 4 3 2 5
15 13 12 9 9 7 5 5 4 3 3 3 2 2 2 4 8 13 13 8 6 9 4 5 8 8 10 10 9 9 9 10 10 9 8 8 6 5 5 5 5 5 6
16 12 10 10 8 7 7 3 7 7 7 5 7 3 3 9 13 14 16 17 17 14 5 6 6 7 7 8 9 9 8 10 9 8 8 7 7 7 5 5 5 6 4
16 15 11 10 9 9 7 7 6 1 8 6 6 5 7 8 11 11 13 15 17 12 7 6 5 6 6 6 7 7 7 8 9 7 7 8 8 7 5 5 5 4 4
14 17 12 10 9 9 8 6 5 5 3 0 5 5 5 7 8 11 9 9 5 7 3 3 3 4 4 5 6 6 7 7 8 8 8 8 8 7 5 5 5 4 3
14 12 11 10 8 8 7 6 4 4 3 3 2 1 5 6 8 9 12 3 2 3 3 3 2 3 3 4 4 5 5 6 7 7 8 8 7 7 6 6 5 7 4
12 16 12 10 8 8 7 7 5 4 4 3 2 2 2 4 3 3 2 2 2 1 1 2 3 2 2 3 4 5 6 6 7 7 8 7 7 6 7 6 6 4 4
11 12 14 9 9 9 8 8 7 6 5 3 3 2 6 4 3 2 1 1 1 1 2 1 2 2 2 2 3 4 4 5 6 6 7 7 8 8 7 6 5 5 4
11 12 10 10 8 8 7 6 6 6 5 4 3 2 4 3 4 3 3 3 3 3 2 2 2 1 2 1 2 3 4 4 5 6 6 6 7 7 7 7 6 6 5
12 12 10 8 9 9 7 6 6 5 5 4 3 3 1 2 3 3 3 3 3 2 1 2 2 2 2 3 1 1 2 3 4 3 4 6 6 7 6 6 5 4 5
12 12 11 9 9 8 8 8 5 6 5 5 4 4 3 3 3 4 3 3 3 2 2 2 2 2 2 3 3 3 3 4 3 3 3 3 5 7 5 5 5 5 4
12 12 11 11 11 10 8 7 7 6 5 5 5 3 3 3 3 3 3 3 3 2 3 3 2 3 3 3 4 7 7 8 6 2 1 3 5 7 5 4 4 3 3
12 12 10 9 9 9 9 9 8 7 6 5 5 4 4 4 4 3 3 3 3 3 3 3 3 4 4 4 5 6 6 10 3 4 3 2 4 4 4 4 7 4 6
Wind_Direction
140 134 131 107 90 55 28 343 356 354 344 342 343 342 341 340 344 358 3 356 356 357 356 357 348 346 348 342 341 342 342 332 321 342 26 5 68 91 81 67 66 58 55
144 138 129 114 89 66 27 349 3 359 347 348 347 349 340 337 338 355 360 358 349 352 352 355 346 343 349 344 343 349 341 336 310 315 6 18 65 62 75 65 60 54 37
142 133 134 120 102 71 28 343 15 1 354 355 357 354 339 336 331 11 3 359 354 345 347 346 341 343 346 340 347 353 343 339 326 290 342 25 60 56 76 63 62 62 44
138 134 148 136 116 89 41 337 18 0 2 354 352 339 340 327 341 19 10 351 1 352 343 345 341 342 344 337 350 353 348 353 344 350 21 27 45 44 69 91 84 67 65
141 137 143 129 102 80 38 336 2 25 8 356 347 348 348 344 342 17 20 355 355 352 345 345 340 337 348 351 351 357 357 359 0 7 12 25 39 55 92 125 92 94 52
141 145 140 122 126 93 47 350 18 20 8 6 6 360 356 354 359 17 17 358 352 354 348 345 339 339 342 346 357 2 13 9 7 10 12 9 9 24 29 74 123 110 83
143 143 155 157 130 107 80 62 38 16 348 3 358 3 357 340 7 18 15 6 359 354 350 346 341 336 336 342 350 357 14 19 22 19 15 21 357 357 15 74 70 75 109
149 150 160 159 134 135 104 83 40 8 352 332 354 354 350 346 359 15 17 1 356 359 350 350 338 330 332 353 349 358 20 18 15 21 23 20 18 13 34 97 114 102 86
159 160 170 164 145 150 118 113 52 45 15 347 319 355 357 342 355 11 31 5 352 358 349 345 334 328 336 360 358 2 16 15 13 18 31 35 35 40 39 55 76 105 82
165 163 159 159 149 143 141 142 132 53 24 7 356 352 339 341 347 14 21 12 6 354 350 343 338 336 3 6 5 359 19 5 6 5 3 18 23 24 36 38 1 67 93
149 140 149 158 150 145 139 123 122 89 56 26 352 331 337 344 328 17 16 17 24 360 354 340 334 353 5 15 18 11 14 1 3 7 0 9 16 19 25 30 29 34 85
142 143 152 155 152 148 135 120 112 95 55 12 350 342 343 345 1 19 21 20 22 13 359 333 343 1 9 17 22 19 17 7 2 10 12 15 12 16 25 36 40 42 42
143 146 152 156 147 149 140 133 125 114 94 45 5 338 346 353 317 23 20 21 20 26 5 359 5 10 13 15 19 19 15 7 5 11 13 6 3 0 343 23 40 34 59
142 148 151 152 147 145 140 141 138 140 122 75 34 344 336 338 8 20 25 14 14 18 11 4 19 20 23 17 6 11 6 3 5 7 356 0 1 0 30 18 20 354 60
143 149 155 152 154 150 143 153 147 169 155 160 209 238 323 342 33 29 29 23 21 32 7 16 25 10 8 4 360 359 3 6 10 1 3 357 10 8 30 17 28 34 59
147 153 159 153 155 155 151 148 173 170 161 103 132 139 310 40 43 37 37 41 37 48 34 35 28 17 14 358 358 348 0 2 355 359 1 359 1 12 17 24 41 43 58
152 153 154 155 158 158 160 160 148 49 122 101 88 59 47 49 48 49 52 48 50 52 58 38 37 19 357 357 354 352 342 343 336 1 4 2 3 357 12 30 35 39 45
150 155 157 158 162 164 165 160 144 147 147 3 12 75 45 61 61 49 71 56 21 22 44 36 27 11 350 356 351 346 341 347 355 357 6 6 7 357 10 27 36 41 20
151 156 156 155 162 158 146 141 140 136 138 138 353 47 3 64 63 53 55 75 92 20 7 20 4 11 350 340 342 337 335 349 351 354 3 2 360 356 9 23 31 34 25
152 153 154 153 152 146 145 143 140 139 135 142 143 196 329 51 34 344 17 45 64 337 340 4 340 353 349 347 343 343 348 2 2 6 358 353 349 3 5 1 23 19 27
149 150 157 149 154 152 159 161 158 150 155 167 191 208 175 126 176 188 280 299 158 277 291 300 334 343 333 344 345 357 359 351 1 359 354 350 347 1 357 354 9 22 12
149 154 158 158 152 154 159 147 155 154 157 159 199 250 145 115 148 174 217 246 243 218 245 246 285 278 290 319 336 345 355 352 357 357 350 346 346 354 0 354 4 15 13
150 151 152 150 155 138 140 150 151 154 162 169 169 184 167 170 175 180 212 232 233 246 216 223 264 328 312 298 296 270 312 328 328 313 329 341 348 352 3 347 349 13 18
152 154 153 150 150 155 159 164 159 162 162 163 182 191 198 195 192 204 208 239 251 251 235 215 243 259 309 320 312 299 270 274 247 284 307 332 342 345 4 349 348 1 8
154 153 156 158 162 168 155 160 168 167 170 173 185 186 206 205 214 231 216 209 224 220 235 218 217 258 271 294 316 323 315 314 309 302 319 336 351 354 350 348 339 333 358
152 154 157 158 163 163 170 167 173 172 181 180 182 189 194 199 214 200 212 194 205 220 232 232 224 236 257 276 294 301 305 315 323 40 39 25 10 354 0 352 354 356 3